Location: Winthrop
(48.4780°N, 120.1850°W)
Time: 04:38:26
(UTC-08:00)

Vanguard 1 Rocket - Pass Details

Date: 03 December 2023
Orbit: 654 x 4218 km, 34.3° (Epoch: 24 February)

Event Time Altitude Azimuth Distance (km) Brightness Sun altitude
Rises 03:25:52 0° 206° (SSW) 8,404 12.0 -40.1°
Reaches altitude 10° 03:33:43 10° 196° (SSW) 7,128 11.7 -38.8°
Maximum altitude 03:49:41 25° 152° (SSE) 4,871 11.1 -36.2°
Drops below altitude 10° 04:00:42 10° 104° (ESE) 4,879 11.8 -34.4°
Sets 04:04:38 0° 92° (E) 5,396 12.4 -33.7°
